Temperature
24 23 23 23 26 27 26 30 32 31 31 30 30 30 29 28 26 24 24 24 22 22 22 21 21 20 20 20 19 19 19 19 19 19 19 19 19 19 18 18 18 18 18 18 18 18 18 18 18
24 23 24 27 28 27 28 30 31 31 31 30 30 29 29 27 26 24 24 23 22 22 22 21 21 20 20 19 19 19 19 19 19 19 19 19 19 18 18 18 18 18 18 18 18 18 18 18 18
24 24 26 29 29 29 30 31 31 31 31 30 30 29 28 26 25 24 24 23 21 21 21 21 21 20 20 19 19 19 19 19 19 19 19 18 18 18 19 18 18 18 18 18 18 18 18 18 18
23 26 28 29 30 32 32 32 32 32 30 30 30 28 26 25 25 24 23 22 21 20 21 21 21 20 20 19 19 19 19 19 19 19 19 19 18 18 18 18 18 19 18 18 18 18 18 18 18
25 28 29 29 31 33 33 33 32 32 31 30 29 27 25 24 24 23 23 22 21 20 20 21 20 20 20 19 19 19 19 19 19 19 19 19 19 19 18 18 18 18 18 18 18 18 18 18 18
27 30 30 30 32 33 33 32 32 31 30 30 29 27 24 23 23 23 23 22 21 20 20 21 20 20 20 19 19 19 19 19 19 19 19 19 19 19 19 18 18 18 18 18 18 18 18 18 18
28 30 30 32 32 33 33 32 32 31 30 29 29 27 24 24 23 23 23 22 21 20 20 21 20 20 20 19 19 19 19 19 19 19 19 19 18 18 18 18 18 18 18 18 18 18 18 18 19
29 30 30 32 32 32 33 32 32 31 29 28 28 27 23 23 23 23 22 22 22 20 20 20 20 20 20 19 19 19 19 19 19 19 19 19 18 18 18 18 18 18 18 18 18 18 18 18 18
29 30 30 32 32 32 33 32 31 30 29 29 28 26 24 23 23 23 22 22 21 21 20 20 19 19 19 19 19 19 19 19 19 19 19 18 18 18 18 18 18 18 18 18 18 18 18 18 18
30 30 31 33 33 33 33 32 31 31 30 28 27 24 23 23 23 22 22 22 21 21 20 20 19 19 19 18 19 19 19 19 18 18 18 18 18 17 17 17 18 18 18 18 18 18 18 18 18
32 31 32 33 32 32 32 32 31 31 30 28 26 24 23 23 22 22 22 22 21 21 20 20 19 19 19 19 19 18 18 18 18 18 18 18 18 18 18 18 18 18 17 17 17 18 17 17 17
32 32 32 32 32 32 32 32 31 30 29 27 26 24 23 22 22 22 22 21 21 21 20 20 19 19 19 19 19 19 18 18 18 18 18 18 18 18 18 17 17 17 17 17 17 17 17 17 17
32 32 32 32 32 32 31 31 31 29 28 26 25 24 23 22 22 22 21 21 20 20 20 20 19 19 19 19 19 19 19 18 18 18 18 18 18 18 17 17 17 17 17 17 17 17 17 17 17
32 33 32 32 32 32 32 31 30 29 27 26 25 24 23 22 22 21 21 20 20 20 20 19 19 19 19 19 19 18 18 18 18 18 18 18 18 17 17 17 17 17 17 17 17 17 17 17 17
32 32 32 32 32 32 32 30 29 28 27 27 25 24 23 22 21 21 20 20 19 19 19 19 19 19 19 19 19 18 18 18 18 18 18 17 17 17 17 17 17 16 16 16 16 16 16 17 17
32 31 30 31 32 32 31 29 29 27 27 26 25 24 23 22 21 20 20 19 19 19 19 19 18 19 19 19 18 18 18 18 18 18 18 17 17 17 17 16 16 16 16 16 16 16 16 16 16
31 30 30 31 32 32 31 30 29 28 27 26 25 24 22 21 20 20 20 19 19 19 19 19 19 19 19 18 18 18 18 18 18 17 17 17 17 17 16 16 16 16 16 16 16 16 16 16 16
30 31 31 31 32 32 31 30 29 29 28 27 25 24 22 21 20 20 20 19 19 18 18 19 18 18 18 18 18 18 18 18 17 17 17 17 16 16 16 16 16 16 16 15 15 15 16 16 16
32 31 31 31 32 32 31 30 30 29 28 27 25 24 22 21 20 20 19 19 18 18 18 18 18 18 18 18 18 18 18 17 17 17 17 16 16 16 16 16 16 15 15 15 15 15 15 16 16
32 31 31 31 32 32 31 30 30 29 28 27 25 24 22 21 20 19 19 19 18 18 18 18 18 18 18 18 18 18 18 17 17 17 17 16 16 16 16 16 15 15 15 15 15 15 15 15 16
31 31 31 31 32 32 31 29 28 28 28 27 26 24 23 21 20 19 18 18 18 18 18 18 18 18 18 18 18 17 17 17 17 17 17 16 16 16 16 15 15 15 15 15 15 15 15 15 15
31 32 31 31 30 30 30 27 26 27 27 27 26 24 23 22 21 19 19 18 18 18 18 18 18 18 18 18 18 18 17 17 17 17 17 16 16 15 15 15 15 15 15 15 14 14 15 15 15
31 32 31 30 29 27 26 26 26 27 27 27 26 25 24 23 21 20 19 19 18 18 18 18 18 18 18 18 18 17 17 17 17 17 17 16 16 15 15 15 15 15 14 14 14 14 14 14 15
32 32 30 28 26 23 23 24 26 27 28 27 27 26 24 23 22 21 20 19 19 19 18 18 18 18 18 18 18 18 17 17 17 17 17 16 16 16 15 15 15 15 14 14 14 14 14 14 14
32 30 28 25 23 23 24 24 27 29 30 29 27 26 25 24 23 22 21 20 19 19 18 18 18 18 18 18 18 18 17 17 17 17 17 16 16 16 16 15 15 15 14 14 14 14 14 14 14
31 30 28 26 25 26 26 25 27 30 30 29 28 26 25 24 23 22 21 20 20 19 19 19 18 18 18 18 18 18 18 17 17 17 17 17 17 16 16 16 15 15 14 14 14 14 14 14 14
31 30 31 28 28 27 26 25 26 28 29 29 28 27 26 25 24 23 22 21 20 20 19 19 19 18 18 18 18 18 18 17 17 17 17 17 17 16 16 16 16 15 15 14 14 14 14 14 14
32 31 30 29 27 26 25 24 23 24 27 28 28 27 26 25 24 23 22 22 21 20 20 19 19 19 18 18 18 18 18 18 17 17 17 17 17 16 16 16 16 15 15 14 14 14 14 14 14
30 30 29 29 29 26 25 24 25 25 27 28 29 28 27 26 25 24 23 22 22 21 20 19 19 19 18 18 18 18 18 18 18 17 17 17 17 17 16 16 16 15 15 15 15 14 14 14 14
30 29 29 27 27 28 27 25 27 26 28 29 29 28 27 26 26 25 24 23 22 21 20 20 19 19 19 18 18 18 18 18 18 17 17 17 17 17 17 16 16 15 15 15 15 15 14 14 14
Wind_Speed
11 14 12 8 7 5 7 5 5 10 9 10 8 6 9 12 9 8 9 18 24 23 22 21 19 17 17 16 16 15 15 14 14 13 13 13 12 12 12 12 13 13 13 13 13 13 12 12 11
11 15 12 8 8 7 4 4 7 9 8 6 4 5 7 12 12 11 13 19 24 22 21 20 20 18 17 16 16 15 15 14 13 13 12 12 12 12 12 12 12 12 12 12 12 12 12 11 10
13 17 9 8 12 10 3 3 4 5 6 3 4 5 7 8 10 10 15 20 23 20 21 22 21 19 17 17 16 15 15 14 13 12 12 12 12 12 11 12 12 12 12 12 12 11 11 10 9
9 9 7 9 13 7 5 5 4 3 5 3 3 7 8 7 8 13 17 20 22 21 21 21 21 19 18 16 16 15 15 14 13 12 11 11 11 11 11 11 11 11 11 11 11 10 10 9 8
11 9 11 14 14 6 4 5 5 3 2 3 3 9 8 8 11 16 17 20 21 21 21 21 20 19 18 16 15 15 14 13 13 12 11 11 11 10 10 10 10 10 10 10 9 9 8 7 6
9 11 13 13 9 3 3 4 3 3 3 2 3 8 8 11 13 15 17 18 19 21 20 20 20 19 17 16 15 14 14 13 12 11 10 10 10 10 9 9 9 9 9 8 8 7 7 6 4
12 13 16 14 7 4 3 4 3 3 3 3 2 6 8 12 14 16 16 16 19 21 20 18 18 17 17 16 15 14 13 12 11 10 10 9 9 9 8 8 8 7 7 6 6 5 4 3 2
11 12 16 11 6 4 5 3 2 2 2 2 1 5 8 11 14 17 16 15 17 20 19 17 18 17 16 15 14 14 13 12 11 10 9 9 9 8 8 9 7 6 5 5 4 3 2 2 2
12 11 12 9 7 6 5 4 2 0 1 2 4 10 14 16 15 16 15 14 14 16 17 17 17 16 16 16 15 14 13 12 11 10 9 9 8 8 8 9 9 6 5 4 3 3 3 4 6
9 10 10 8 9 9 7 6 5 3 3 3 9 14 17 16 16 16 16 15 15 15 15 14 15 14 14 14 15 13 12 12 10 10 9 8 7 7 9 10 8 6 5 4 4 5 6 8 7
10 10 9 8 7 8 9 7 5 5 1 3 10 16 16 16 15 15 15 14 13 14 14 14 13 11 10 8 11 9 9 10 9 9 8 5 5 6 9 7 7 6 6 4 4 5 5 3 2
10 9 8 8 8 8 9 8 6 3 4 6 10 15 16 16 16 14 13 12 11 11 12 13 12 9 7 8 7 7 7 6 6 7 4 5 4 4 5 4 3 3 3 3 2 1 0 2 3
10 11 10 8 8 8 8 8 5 1 6 7 10 13 14 14 15 14 12 11 10 9 10 11 11 9 6 5 4 6 6 6 8 7 4 5 4 3 4 3 2 1 2 2 1 2 1 1 2
12 12 11 9 10 9 8 6 4 1 5 6 8 10 12 13 13 13 12 11 10 9 9 11 10 10 7 6 4 4 6 6 8 7 6 6 7 5 3 2 1 3 5 4 2 1 0 0 0
13 15 12 11 12 8 7 6 2 3 5 7 9 9 10 10 11 10 11 12 12 11 10 11 10 10 8 7 5 5 5 7 7 8 7 7 7 4 2 2 1 3 3 1 1 2 2 1 1
16 15 13 12 11 6 6 4 7 8 7 7 8 9 10 9 9 11 12 11 11 11 11 11 11 12 9 6 4 3 5 7 7 9 8 7 5 3 2 2 3 2 1 1 1 1 2 2 2
13 12 11 7 6 6 7 4 7 8 7 7 8 9 11 10 9 10 13 13 12 12 11 10 10 11 9 7 4 4 5 5 7 9 8 6 4 4 3 3 3 1 0 2 2 4 3 3 3
11 12 10 7 4 7 8 4 6 8 8 8 9 10 11 11 9 9 11 13 13 13 12 10 10 10 9 7 5 5 5 5 6 7 7 7 5 3 2 5 2 2 2 3 3 2 1 1 2
13 14 14 11 7 8 9 6 5 8 8 8 9 11 12 12 12 10 10 11 12 12 11 11 10 9 8 6 6 6 5 5 5 6 8 7 6 4 1 3 3 1 3 3 3 2 2 1 1
14 15 14 11 9 10 11 7 3 6 7 8 10 12 12 13 12 11 11 11 11 11 11 11 11 11 9 6 5 5 5 5 5 5 7 7 6 6 4 3 2 2 3 3 2 2 3 2 1
14 13 13 14 14 14 12 5 3 6 7 8 10 12 13 15 15 14 13 12 12 13 13 12 11 11 9 9 6 5 5 3 5 6 5 5 6 5 3 3 1 1 2 3 1 1 2 3 2
14 13 13 15 15 12 9 3 4 6 7 9 10 12 13 14 16 15 15 15 15 14 13 12 12 11 10 10 9 9 7 6 6 6 6 6 6 6 6 4 3 0 1 3 2 2 2 2 2
15 13 14 16 14 12 9 6 5 7 7 10 11 12 13 14 15 16 16 15 15 15 14 12 12 11 11 10 9 9 7 6 6 6 8 7 6 5 6 5 4 2 1 2 2 2 2 2 3
14 14 14 10 6 5 8 7 3 5 7 10 12 12 13 14 15 15 16 15 14 15 14 14 13 12 11 11 10 9 8 7 7 7 8 6 6 5 6 6 4 3 2 2 2 1 1 1 3
13 13 9 6 2 5 9 6 2 5 6 10 13 13 14 14 15 15 15 16 15 16 16 15 15 13 12 11 10 9 8 7 7 7 8 7 6 6 7 6 5 3 3 3 2 2 1 1 1
13 13 9 9 9 6 2 2 0 6 8 9 13 14 14 15 14 15 15 15 15 16 15 15 15 14 13 12 10 9 8 6 6 7 6 7 4 6 8 6 6 5 5 5 3 3 4 3 2
14 12 11 10 13 10 2 1 2 5 6 8 12 14 14 14 15 15 15 15 15 15 15 16 15 14 13 13 11 9 9 8 7 8 6 5 4 5 9 7 7 6 5 3 3 3 3 3 3
14 11 9 8 8 8 3 2 1 3 4 5 10 12 13 14 15 15 15 15 14 15 14 14 14 13 12 12 12 12 10 8 7 7 7 5 6 5 8 7 7 7 6 5 5 4 4 4 4
12 12 9 9 8 7 5 1 5 8 7 7 9 11 12 13 14 15 14 14 14 14 14 14 14 13 13 13 12 11 11 10 8 7 7 6 6 6 7 7 7 7 7 7 6 6 5 6 5
10 10 10 8 9 9 7 0 3 3 2 6 9 10 9 11 13 14 15 14 14 14 14 14 14 14 13 12 11 10 10 10 9 9 8 8 7 7 8 8 7 8 8 7 7 8 7 6 6
Wind_Direction
241 247 243 255 251 252 280 309 13 37 49 54 44 35 54 54 65 98 129 130 123 125 130 129 127 127 126 125 124 122 120 119 116 113 110 107 104 101 97 96 94 92 90 88 86 84 81 80 82
257 259 250 250 257 266 289 336 28 51 59 71 81 63 69 71 80 112 128 125 124 127 134 132 129 128 127 126 126 125 123 121 118 116 113 111 108 104 100 96 95 94 92 88 86 84 82 81 81
259 264 266 256 260 275 334 40 54 75 72 51 69 71 66 76 91 115 125 128 126 129 130 130 131 129 129 128 128 127 126 124 121 119 114 111 109 105 102 99 97 94 93 90 88 85 83 82 80
257 252 246 262 277 302 344 29 31 74 86 64 59 84 79 76 108 126 134 131 127 129 130 133 133 131 132 131 131 130 128 127 126 123 118 113 110 107 104 101 97 95 95 92 90 88 84 82 80
249 261 255 265 274 298 354 21 360 342 78 74 63 96 100 97 115 133 142 135 134 133 131 136 135 134 135 135 135 134 132 131 131 127 123 117 112 109 106 103 100 99 98 96 93 91 86 80 74
261 260 268 274 285 331 26 42 344 2 59 87 115 107 106 123 129 141 145 141 138 133 132 136 137 138 138 138 138 137 136 134 132 130 126 121 118 115 112 108 105 103 101 101 99 95 91 83 72
263 282 281 284 309 333 19 14 346 27 20 14 67 102 122 133 137 144 145 143 137 133 134 142 143 143 143 143 143 142 140 138 137 135 132 130 127 127 126 119 114 111 110 109 107 104 100 96 80
264 284 291 296 317 1 43 355 358 359 104 72 32 108 135 141 144 144 147 144 138 137 142 148 148 148 150 149 148 146 145 144 144 145 146 147 147 148 147 141 128 123 123 128 129 132 143 169 223
260 269 282 312 342 5 19 336 345 6 166 139 84 99 135 148 149 149 151 148 144 143 147 153 149 154 157 155 151 152 152 154 154 159 167 170 172 165 166 137 137 143 147 154 170 189 212 225 231
248 267 295 345 343 332 343 324 304 248 211 150 114 116 138 155 158 160 160 156 151 147 149 147 150 156 163 156 152 161 162 160 174 167 174 187 176 157 139 137 149 162 175 187 206 225 240 240 235
259 277 311 327 330 321 316 307 298 293 269 137 141 146 156 162 165 166 166 161 154 152 149 146 143 153 152 139 157 157 154 157 172 159 166 163 137 126 125 143 157 186 198 202 193 225 243 252 294
262 282 290 297 312 302 303 308 313 337 60 97 132 150 158 165 171 170 168 159 157 156 148 144 143 145 133 140 142 141 141 147 138 143 158 124 99 94 103 107 144 189 170 161 174 221 359 351 340
262 269 272 283 292 290 296 295 302 23 90 112 133 151 163 174 175 171 164 155 155 151 141 134 136 128 113 107 132 134 123 134 133 134 99 106 107 86 85 73 52 68 86 91 51 56 38 16 343
286 292 294 296 285 275 275 286 277 159 130 142 149 163 172 175 173 168 157 151 151 153 139 132 135 126 121 119 108 115 124 125 119 114 97 85 83 79 93 103 59 51 59 51 359 1 311 13 81
284 282 280 274 265 266 286 281 221 155 166 163 162 167 164 161 165 163 153 150 157 155 145 138 139 134 137 140 149 137 134 125 113 108 103 93 92 94 88 102 94 50 44 48 18 350 296 234 229
279 276 275 263 256 242 262 291 151 174 182 165 168 164 156 149 161 159 153 152 156 156 151 152 149 143 141 135 144 135 128 121 121 122 112 104 105 101 76 84 75 36 4 26 65 15 347 18 7
273 272 278 274 248 275 283 303 165 175 175 170 174 162 154 148 162 159 157 159 159 157 152 151 136 141 143 143 146 123 112 121 126 124 123 126 120 110 96 85 73 295 46 43 18 56 25 357 6
301 304 303 309 265 279 291 283 181 183 187 179 169 162 154 154 168 165 156 160 159 156 152 145 139 143 145 147 145 129 129 135 129 123 128 138 132 116 121 113 89 345 62 53 50 23 40 311 328
300 302 307 314 300 294 293 277 206 183 187 173 172 167 163 166 171 164 161 162 156 152 152 148 147 149 151 152 153 148 153 148 135 136 142 147 140 133 41 100 117 42 75 61 44 11 300 223 35
288 296 303 307 306 289 287 276 200 171 183 175 172 168 169 166 168 168 167 167 162 157 155 153 156 157 161 157 154 158 149 155 144 134 145 157 154 159 161 107 141 93 105 81 43 32 334 334 72
284 294 304 309 303 288 284 274 169 169 173 171 172 169 173 170 168 173 171 169 171 167 166 165 165 161 167 158 156 152 136 152 139 143 159 164 164 164 115 130 104 120 157 129 108 1 348 344 356
283 295 305 305 301 300 300 285 168 184 178 173 173 172 174 172 169 174 174 177 177 176 172 165 165 164 168 165 168 164 169 178 166 163 159 166 172 165 160 165 142 214 49 124 188 114 331 318 314
286 297 297 300 306 309 326 309 181 184 187 176 173 175 175 175 172 174 176 177 178 178 175 168 167 168 170 176 173 177 182 178 163 159 151 167 170 178 178 172 161 175 140 105 69 85 349 334 339
279 285 288 302 324 311 281 273 214 172 179 167 165 169 171 172 172 173 172 174 179 176 173 170 170 172 174 180 178 189 190 177 163 161 156 179 170 182 181 178 168 190 176 139 145 164 174 3 1
268 277 289 306 296 252 251 261 198 152 142 150 158 163 168 169 171 171 171 173 174 177 175 172 171 174 176 181 183 188 189 177 167 172 169 190 180 179 177 176 167 189 168 175 173 187 226 201 329
258 267 276 293 294 294 260 287 252 114 113 128 146 154 163 167 168 171 172 172 175 178 175 171 172 175 179 183 183 183 182 184 182 191 187 195 203 174 162 162 170 190 189 198 176 210 199 186 224
256 263 276 281 287 294 285 257 70 52 105 131 143 153 163 168 170 172 173 175 176 177 176 174 174 176 181 182 179 180 185 198 191 178 203 192 183 154 151 165 176 189 194 199 176 228 224 172 217
246 264 280 286 295 300 315 0 16 277 185 154 151 157 163 168 172 172 174 178 179 177 173 173 175 178 181 181 183 187 190 198 193 186 194 195 173 161 153 172 183 188 187 192 207 230 208 205 226
244 248 258 275 282 297 301 300 177 217 202 172 158 155 163 169 172 173 174 177 177 177 174 173 172 178 183 186 191 189 187 194 195 197 189 186 173 166 167 183 189 192 194 194 201 234 218 206 222
260 264 258 256 269 278 289 189 148 228 225 157 143 145 157 169 170 171 173 174 177 179 178 177 178 181 186 187 187 191 186 190 195 197 191 183 181 182 186 193 198 204 203 197 201 222 227 212 219
Height
1503 1502 1502 1504 1500 1498 1498 1480 1471 1472 1475 1480 1483 1483 1487 1492 1498 1511 1510 1511 1513 1516 1521 1525 1529 1532 1535 1537 1539 1541 1543 1545 1546 1547 1548 1549 1550 1551 1552 1553 1554 1555 1555 1556 1557 1557 1558 1559 1559
1503 1503 1505 1501 1496 1503 1494 1478 1475 1476 1479 1482 1484 1486 1488 1494 1501 1507 1510 1513 1514 1517 1522 1525 1529 1533 1536 1538 1540 1543 1544 1546 1548 1549 1550 1551 1552 1553 1554 1555 1556 1556 1557 1558 1559 1559 1560 1560 1561
1503 1503 1503 1493 1490 1491 1485 1475 1474 1476 1480 1483 1484 1487 1492 1499 1503 1508 1511 1514 1516 1519 1523 1526 1530 1533 1536 1539 1541 1544 1545 1547 1549 1550 1551 1553 1554 1555 1556 1556 1557 1558 1559 1560 1560 1561 1562 1562 1563
1504 1503 1499 1491 1486 1474 1471 1471 1473 1475 1481 1484 1485 1490 1497 1502 1505 1509 1512 1515 1517 1520 1523 1527 1531 1534 1537 1540 1542 1545 1546 1548 1550 1551 1553 1554 1555 1556 1557 1558 1559 1559 1560 1561 1562 1563 1563 1564 1565
1505 1500 1493 1490 1480 1469 1467 1470 1474 1476 1480 1484 1487 1493 1500 1504 1505 1509 1513 1516 1519 1522 1524 1528 1532 1535 1538 1541 1543 1545 1547 1549 1551 1552 1554 1555 1556 1557 1558 1559 1560 1561 1562 1563 1563 1564 1565 1566 1566
1502 1493 1492 1488 1475 1467 1468 1472 1475 1478 1481 1484 1488 1492 1502 1504 1506 1510 1514 1517 1520 1522 1525 1529 1532 1536 1539 1541 1544 1546 1548 1550 1551 1553 1554 1556 1557 1558 1559 1560 1561 1562 1563 1564 1565 1565 1566 1567 1568
1501 1492 1487 1477 1472 1469 1469 1473 1475 1479 1483 1485 1488 1492 1501 1505 1506 1510 1514 1518 1520 1523 1525 1529 1533 1536 1539 1542 1544 1546 1548 1550 1552 1554 1555 1557 1558 1559 1560 1561 1562 1563 1564 1565 1566 1566 1567 1568 1568
1497 1492 1485 1474 1473 1472 1471 1474 1476 1480 1483 1487 1489 1492 1501 1505 1508 1511 1515 1518 1521 1523 1526 1530 1533 1536 1539 1542 1545 1547 1549 1551 1553 1554 1556 1558 1559 1560 1561 1562 1563 1564 1565 1565 1566 1567 1567 1568 1569
1494 1493 1487 1476 1472 1471 1471 1474 1477 1480 1483 1487 1490 1493 1498 1503 1507 1511 1515 1518 1521 1523 1526 1530 1533 1536 1539 1542 1545 1547 1549 1551 1553 1555 1557 1558 1559 1561 1562 1563 1564 1565 1565 1566 1566 1567 1567 1568 1569
1489 1489 1481 1472 1472 1471 1472 1475 1476 1478 1481 1486 1491 1496 1499 1503 1506 1509 1513 1516 1519 1522 1526 1530 1533 1537 1540 1543 1545 1547 1549 1551 1553 1555 1557 1558 1560 1562 1563 1564 1564 1565 1565 1566 1566 1567 1567 1568 1568
1482 1480 1475 1473 1473 1474 1473 1473 1474 1476 1479 1485 1490 1495 1499 1502 1505 1509 1512 1516 1519 1523 1526 1530 1533 1537 1540 1543 1545 1547 1550 1552 1554 1556 1557 1559 1561 1562 1563 1563 1564 1565 1565 1566 1566 1566 1567 1568 1568
1480 1477 1475 1474 1474 1474 1473 1473 1474 1477 1481 1485 1488 1493 1497 1501 1504 1507 1511 1515 1519 1522 1526 1529 1532 1536 1539 1542 1545 1547 1550 1552 1554 1556 1558 1559 1561 1562 1563 1563 1564 1564 1565 1565 1566 1566 1567 1567 1568
1476 1474 1473 1472 1473 1472 1473 1473 1475 1478 1482 1485 1489 1492 1496 1499 1503 1506 1510 1512 1517 1520 1523 1528 1531 1534 1538 1542 1545 1547 1549 1552 1554 1555 1558 1559 1560 1561 1562 1562 1563 1564 1565 1565 1565 1566 1566 1566 1567
1474 1472 1471 1471 1472 1471 1470 1471 1475 1477 1482 1485 1488 1491 1494 1497 1500 1504 1507 1510 1515 1520 1523 1527 1531 1535 1538 1542 1544 1547 1549 1551 1554 1555 1557 1558 1559 1560 1561 1562 1563 1563 1564 1564 1564 1564 1565 1565 1566
1474 1472 1471 1470 1468 1467 1469 1471 1474 1478 1480 1483 1486 1490 1493 1496 1499 1502 1504 1509 1513 1518 1522 1526 1530 1534 1538 1541 1545 1547 1549 1551 1552 1554 1556 1557 1558 1560 1561 1562 1562 1562 1563 1563 1564 1564 1564 1565 1565
1473 1473 1476 1468 1465 1464 1469 1475 1472 1476 1479 1481 1485 1488 1492 1495 1498 1500 1503 1507 1512 1517 1521 1525 1529 1533 1537 1541 1544 1547 1549 1551 1552 1553 1555 1557 1558 1559 1560 1561 1561 1562 1562 1563 1563 1563 1564 1564 1564
1473 1476 1474 1467 1461 1460 1463 1469 1469 1473 1476 1480 1483 1487 1491 1495 1498 1501 1503 1507 1511 1515 1520 1524 1528 1532 1537 1540 1544 1546 1548 1550 1552 1553 1555 1556 1557 1558 1559 1560 1560 1561 1562 1562 1562 1562 1562 1563 1563
1477 1471 1467 1466 1459 1458 1461 1463 1464 1469 1472 1476 1481 1485 1490 1493 1497 1500 1503 1507 1511 1515 1519 1523 1527 1532 1536 1539 1542 1545 1548 1550 1552 1553 1554 1556 1557 1558 1559 1559 1559 1560 1561 1561 1561 1561 1562 1562 1563
1466 1466 1466 1461 1453 1456 1458 1459 1461 1464 1469 1473 1479 1483 1488 1492 1496 1500 1503 1506 1510 1514 1518 1522 1526 1531 1535 1538 1541 1544 1547 1550 1552 1553 1554 1555 1556 1557 1558 1559 1559 1559 1560 1560 1560 1561 1562 1563 1563
1464 1467 1465 1458 1452 1454 1455 1456 1456 1461 1466 1471 1476 1481 1486 1491 1495 1498 1501 1505 1508 1512 1515 1520 1525 1529 1533 1537 1540 1544 1547 1549 1551 1552 1553 1555 1556 1556 1558 1558 1559 1559 1559 1560 1560 1561 1561 1563 1563
1464 1465 1463 1461 1453 1448 1454 1461 1461 1463 1465 1469 1474 1479 1484 1488 1493 1497 1500 1504 1507 1511 1515 1519 1524 1528 1532 1536 1539 1543 1546 1548 1550 1552 1553 1554 1555 1556 1557 1557 1558 1559 1559 1559 1560 1560 1561 1562 1563
1466 1455 1455 1457 1461 1462 1459 1476 1470 1464 1465 1467 1471 1476 1481 1486 1490 1494 1498 1502 1505 1509 1513 1518 1522 1526 1530 1534 1538 1541 1543 1546 1549 1550 1551 1553 1554 1555 1556 1557 1557 1558 1559 1559 1560 1560 1561 1561 1562
1457 1452 1454 1458 1465 1471 1472 1479 1473 1462 1465 1464 1467 1473 1478 1483 1488 1492 1496 1500 1504 1508 1512 1516 1521 1524 1528 1533 1536 1539 1543 1545 1547 1549 1550 1551 1552 1554 1555 1556 1556 1557 1558 1558 1558 1559 1559 1561 1561
1450 1452 1455 1461 1474 1496 1488 1487 1474 1460 1457 1458 1463 1469 1475 1481 1486 1491 1495 1499 1503 1507 1511 1515 1519 1523 1527 1531 1534 1538 1541 1544 1546 1547 1548 1550 1551 1552 1553 1554 1555 1556 1557 1557 1557 1558 1559 1559 1560
1451 1462 1477 1489 1499 1498 1478 1481 1468 1450 1447 1452 1459 1466 1472 1478 1484 1489 1493 1497 1501 1505 1509 1513 1517 1520 1524 1528 1532 1536 1539 1542 1544 1546 1547 1548 1550 1550 1552 1553 1553 1555 1555 1556 1556 1557 1558 1559 1559
1452 1458 1478 1494 1491 1480 1473 1478 1462 1444 1447 1451 1457 1463 1470 1476 1482 1487 1491 1495 1499 1504 1508 1511 1514 1518 1522 1526 1530 1534 1537 1539 1542 1544 1546 1547 1549 1549 1550 1551 1552 1553 1554 1555 1555 1556 1557 1557 1558
1451 1452 1449 1463 1468 1474 1476 1471 1459 1451 1450 1453 1457 1463 1468 1474 1479 1485 1489 1494 1498 1502 1505 1509 1512 1516 1520 1524 1528 1531 1534 1537 1540 1542 1544 1546 1547 1548 1548 1550 1550 1551 1552 1553 1554 1555 1556 1556 1557
1441 1444 1451 1462 1478 1484 1479 1481 1481 1467 1457 1455 1456 1461 1466 1471 1477 1482 1487 1491 1495 1500 1503 1507 1510 1514 1517 1521 1525 1528 1531 1535 1537 1539 1541 1543 1545 1546 1547 1548 1549 1550 1550 1551 1552 1553 1554 1555 1555
1444 1447 1451 1454 1457 1476 1487 1485 1463 1462 1454 1453 1454 1459 1464 1469 1474 1479 1484 1489 1493 1498 1501 1504 1508 1511 1515 1518 1522 1526 1528 1531 1534 1536 1538 1540 1542 1543 1544 1545 1546 1547 1548 1549 1550 1550 1552 1553 1553
1441 1446 1450 1465 1465 1461 1470 1476 1453 1454 1451 1450 1453 1458 1462 1466 1471 1476 1481 1486 1491 1495 1498 1502 1505 1508 1512 1515 1519 1522 1525 1527 1530 1532 1534 1536 1538 1539 1541 1542 1543 1545 1546 1546 1547 1548 1549 1550 1551